Concord, NH

6:28 AM EDT on April 21, 2018 (GMT -0400)
Concord Municipal

Weather History for KCON - October, 2010

Change the Weather History Date:

Sunday, October 10, 2010

  Actual Average Record
Temperature  
Mean Temperature 50 °F 50 °F  
Max Temperature 67 °F 63 °F 86 °F (1939)
Min Temperature 33 °F 37 °F 22 °F (1993)
Degree Days  
Heating Degree Days 15 15  
Month to date heating degree days 112 134  
Since 1 July heating degree days 266 369  
Cooling Degree Days 0 0  
Month to date cooling degree days 1 0  
Year to date cooling degree days 679 450  
Moisture  
Dew Point 28 °F    
Average Humidity 50    
Maximum Humidity 82    
Minimum Humidity 18    
Precipitation  
Precipitation 0.00 in 0.14 in 1.80 in (1869)
Month to date precipitation 2.23 1.31  
Year to date precipitation 27.30 30.96  
Snow  
Snow 0.00 in 0.00 in 1.00 in (1979)
Month to date snowfall 0.0 0.0  
Since 1 July snowfall 0.0 0.0  
Since 1 September snowfall 0.0 0.0  
Snow Depth 0.00 in    
Sea Level Pressure  
Sea Level Pressure 29.79 in    
Wind  
Wind Speed 6 mph (West)    
Max Wind Speed 10 mph    
Max Gust Speed 18 mph    
Visibility 10 miles    
Events      
T = Trace of Precipitation, MM = Missing Value Source: NWS Daily Summary

Daily Weather History Graph

Daily Weather History Graph

Search for Another Location

Airport or City:

Astronomy

Oct. 10, 2010 Rise Set
Actual Time 6:53 AM EDT 6:11 PM EDT
Civil Twilight 6:25 AM EDT 6:40 PM EDT
Nautical Twilight 5:52 AM EDT 7:12 PM EDT
Astronomical Twilight 5:19 AM EDT 7:45 PM EDT
Moon 10:29 AM EDT (10/10) 7:44 PM EDT (10/10)
Length of Visible Light 12h 14m
Length of Day
11h 17m
Waxing Crescent, 11% of the Moon is Illuminated
Oct 10
Waxing Crescent
Oct 14
First Quarter
Oct 22
Full
Oct 30
Last Quarter
Nov 6
New

Hourly Weather History & Observations

Time (EDT) Temp. Windchill Dew Point Humidity Pressure Visibility Wind Dir Wind Speed Gust Speed Precip Events Conditions
12:51 AM 37.9 °F - 30.9 °F 76% 29.96 in 10.0 mi Calm Calm - N/A   Clear
1:51 AM 35.1 °F - 30.0 °F 82% 29.95 in 10.0 mi Calm Calm - N/A   Clear
2:51 AM 41.0 °F 35.8 °F 30.0 °F 65% 29.93 in 10.0 mi West 8.1 mph - N/A   Clear
3:51 AM 42.1 °F 36.6 °F 28.9 °F 60% 29.91 in 10.0 mi West 9.2 mph - N/A   Clear
4:51 AM 39.9 °F 35.1 °F 30.0 °F 68% 29.92 in 10.0 mi West 6.9 mph - N/A   Clear
5:51 AM 41.0 °F 35.2 °F 28.9 °F 62% 29.92 in 10.0 mi West 9.2 mph - N/A   Clear
6:51 AM 39.9 °F 35.1 °F 28.9 °F 65% 29.92 in 10.0 mi WNW 6.9 mph - N/A   Clear
7:51 AM 39.0 °F 34.0 °F 30.0 °F 70% 29.91 in 10.0 mi NW 6.9 mph - N/A   Clear
8:51 AM 41.0 °F 39.0 °F 30.9 °F 67% 29.90 in 10.0 mi North 3.5 mph - N/A   Clear
9:51 AM 48.9 °F - 30.0 °F 48% 29.87 in 10.0 mi Calm Calm - N/A   Clear
10:51 AM 55.9 °F - 26.1 °F 32% 29.85 in 10.0 mi West 6.9 mph - N/A   Clear
11:51 AM 59.0 °F - 24.1 °F 26% 29.80 in 10.0 mi West 9.2 mph 18.4 mph N/A   Clear
12:51 PM 61.0 °F - 21.9 °F 22% 29.76 in 10.0 mi WSW 9.2 mph - N/A   Clear
1:51 PM 64.0 °F - 21.9 °F 20% 29.72 in 10.0 mi WSW 6.9 mph - N/A   Clear
2:51 PM 66.0 °F - 21.9 °F 19% 29.69 in 10.0 mi NW 9.2 mph - N/A   Clear
3:51 PM 66.0 °F - 21.0 °F 18% 29.67 in 10.0 mi West 10.4 mph 17.3 mph N/A   Clear
4:51 PM 66.0 °F - 21.0 °F 18% 29.65 in 10.0 mi West 6.9 mph - N/A   Clear
5:51 PM 61.0 °F - 21.9 °F 22% 29.64 in 10.0 mi West 5.8 mph - N/A   Clear
6:51 PM 60.1 °F - 27.0 °F 28% 29.65 in 10.0 mi West 9.2 mph - N/A   Clear
7:51 PM 57.0 °F - 28.9 °F 34% 29.65 in 10.0 mi Variable 3.5 mph - N/A   Clear
8:51 PM 46.0 °F - 35.1 °F 66% 29.66 in 10.0 mi Calm Calm - N/A   Clear
9:51 PM 42.1 °F - 34.0 °F 73% 29.67 in 10.0 mi Calm Calm - N/A   Clear
10:51 PM 44.1 °F - 34.0 °F 68% 29.68 in 10.0 mi Calm Calm - N/A   Partly Cloudy
11:51 PM 39.9 °F 36.7 °F 34.0 °F 79% 29.68 in 10.0 mi ENE 4.6 mph - N/A   Clear